1516158000.78,43121,8.31,71128.3,-12.67,-21.97,-20.53,0,*6E
1516158002.06,43122,8.31,71132.5,-12.67,-22.17,-20.35,0,*66
1516158003.31,43123,8.31,71124.0,-12.67,-22.17,-20.05,0,*64
1516158004.58,43124,8.31,71116.5,-12.65,-22.17,-19.91,0,*66
1516158005.84,43125,8.31,71112.8,-12.67,-21.93,-19.57,0,*60
1516158007.08,43126,8.31,71108.5,-12.67,-21.77,-19.27,0,*6E
1516158008.32,43127,8.31,71122.8,-12.67,-21.57,-18.99,0,*69
1516158009.58,43128,8.31,71124.0,-12.67,-21.57,-18.89,0,*67
1516158010.79,43129,8.31,71118.3,-12.67,-21.47,-18.79,0,*68
1516158012.01,43130,8.31,71120.5,-12.67,-21.43,-18.41,0,*6F
1516158013.25,43131,8.31,71120.3,-12.67,-21.23,-18.17,0,*6B
1516158014.52,43132,8.31,71118.8,-12.67,-20.99,-17.93,0,*6B
1516158015.76,43133,8.31,71126.5,-12.67,-20.63,-17.59,0,*69
1516158016.98,43134,8.31,71130.3,-12.67,-20.39,-17.31,0,*6F
1516158018.22,43135,8.31,71132.8,-12.67,-20.05,-17.11,0,*63
1516158019.46,43136,8.31,71138.5,-12.67,-19.81,-16.75,0,*65
1516158020.68,43137,8.31,71134.8,-12.67,-19.71,-16.45,0,*68
1516158021.92,43138,8.31,71134.8,-12.67,-19.47,-16.31,0,*61
1516158023.17,43139,8.31,71136.8,-12.67,-19.13,-16.13,0,*61
1516158024.42,43140,8.31,71134.5,-12.67,-18.93,-15.95,0,*6B
1516158025.65,43141,8.31,71136.0,-12.67,-18.79,-15.71,0,*64
1516158026.9,43142,8.31,71132.5,-12.67,-18.41,-15.57,0,*68
1516158028.14,43143,8.31,71132.0,-12.67,-18.17,-15.43,0,*6F
1516158029.39,43144,8.25,71132.5,-12.67,-17.87,-15.35,0,*6F
1516158030.64,43145,8.31,71134.8,-12.67,-17.59,-15.25,0,*6C
1516158031.9,43146,8.31,71138.8,-12.67,-17.41,-15.25,0,*66
1516158033.14,43147,8.31,71140.8,-12.67,-17.11,-15.07,0,*62
1516158034.39,43148,8.31,71138.0,-12.67,-16.83,-14.93,0,*6B
1516158035.64,43149,8.31,71140.0,-12.67,-16.65,-14.89,0,*69
1516158036.89,43150,8.31,71138.5,-12.67,-16.41,-14.83,0,*6D
1516158038.15,43151,8.31,71134.8,-12.67,-16.31,-14.75,0,*62
1516158039.4,43152,8.31,71144.0,-12.67,-16.09,-14.69,0,*67
1516158040.64,43153,8.31,71136.8,-12.67,-15.99,-14.75,0,*61
1516158041.9,43154,8.31,71142.3,-12.65,-15.81,-14.65,0,*6C
1516158043.17,43155,8.31,71138.3,-12.67,-15.57,-14.51,0,*63
1516158044.44,43156,8.31,71136.0,-12.65,-15.53,-14.55,0,*62
1516158045.73,43157,8.31,71142.5,-12.65,-15.39,-14.55,0,*6F
1516158047.0,43158,8.31,71140.8,-12.67,-15.39,-14.55,0,*62
1516158048.24,43159,8.31,71136.8,-12.67,-15.11,-14.47,0,*6A
1516158049.46,43160,8.31,71140.8,-12.67,-15.07,-14.37,0,*60
1516158050.73,43161,8.31,71140.0,-12.67,-14.97,-14.47,0,*6E
1516158052.0,43162,8.31,71138.0,-12.65,-14.83,-14.37,0,*6D
1516158053.26,43163,8.31,71136.5,-12.65,-14.79,-14.37,0,*69
1516158054.56,43164,8.31,71136.3,-12.65,-14.79,-14.47,0,*69
1516158055.86,43165,8.31,71130.0,-12.65,-14.83,-14.47,0,*6D
1516158057.16,43166,8.31,71132.0,-12.65,-14.83,-14.47,0,*6E
1516158058.44,43167,8.31,71130.5,-12.65,-14.97,-14.55,0,*69
1516158059.74,43168,8.31,71144.3,-12.65,-14.83,-14.55,0,*63
1516158061.04,43169,8.31,71130.0,-12.65,-14.83,-14.51,0,*66
1516158062.31,43170,8.31,71122.5,-12.63,-14.79,-14.51,0,*6D
1516158063.56,43171,8.31,71100.5,-12.63,-14.79,-14.61,0,*6F
1516158064.81,43172,8.31,71134.8,-12.65,-14.93,-14.69,0,*66
1516158066.07,43173,8.25,71128.3,-12.65,-14.97,-14.69,0,*63
1516158067.33,43174,8.31,71138.3,-12.65,-14.97,-14.65,0,*68
1516158068.58,43175,8.31,71134.0,-12.65,-15.07,-14.65,0,*61
1516158069.8,43176,8.31,71142.3,-12.63,-15.07,-14.61,0,*60
1516158071.04,43177,8.31,71126.8,-12.63,-14.89,-14.51,0,*65
1516158072.32,43178,8.31,71134.5,-12.63,-14.79,-14.47,0,*62
1516158073.59,43179,8.31,71126.5,-12.63,-14.79,-14.47,0,*63
1516158074.89,43180,8.31,71124.0,-12.65,-14.83,-14.47,0,*66
1516158076.14,43181,8.31,71142.3,-12.63,-14.75,-14.33,0,*6B
1516158077.4,43182,8.31,71126.3,-12.65,-14.79,-14.37,0,*66
1516158078.65,43183,8.31,71136.8,-12.63,-14.75,-14.29,0,*62
1516158079.88,43184,8.31,71148.0,-12.65,-14.65,-14.33,0,*69
1516158081.11,43185,8.31,71152.8,-12.63,-14.37,-14.19,0,*61
1516158082.35,43186,8.25,71146.0,-12.65,-14.37,-14.11,0,*6C
1516158083.58,43187,8.31,71158.5,-12.65,-14.33,-14.11,0,*69
1516158084.86,43188,8.31,71162.8,-12.65,-14.19,-13.97,0,*67
1516158086.14,43189,8.31,71144.8,-12.63,-14.05,-14.01,0,*65
1516158087.39,43190,8.31,71132.8,-12.65,-14.19,-14.11,0,*67
1516158088.64,43191,8.31,71120.0,-12.63,-14.15,-14.05,0,*69
1516158089.9,43192,8.31,71122.3,-12.63,-14.15,-14.05,0,*6A
1516158091.13,43193,8.31,71108.3,-12.63,-14.19,-14.15,0,*66
1516158092.35,43194,8.31,71102.5,-12.63,-14.29,-14.15,0,*62
1516158093.58,43195,8.31,71114.8,-12.63,-14.29,-14.19,0,*6F
1516158094.8,43196,8.31,71120.8,-12.59,-14.29,-14.29,0,*66
1516158096.02,43197,8.31,71126.0,-12.59,-14.29,-14.29,0,*67
1516158097.24,43198,8.31,71138.8,-12.59,-14.33,-14.29,0,*63
1516158098.46,43199,8.31,71146.0,-12.59,-14.33,-14.19,0,*61
1516158099.68,43200,8.31,71136.3,-12.59,-14.29,-14.29,0,*6A
1516158100.93,43201,8.31,71134.5,-12.57,-14.23,-14.23,0,*65
1516158102.15,43202,8.31,71130.0,-12.59,-14.33,-14.29,0,*63
1516158103.37,43203,8.31,71132.5,-12.59,-14.33,-14.29,0,*62
1516158104.62,43204,8.31,71130.5,-12.59,-14.43,-14.29,0,*62
1516158105.84,43205,8.31,71140.5,-12.59,-14.33,-14.29,0,*64
1516158107.06,43206,8.31,71132.5,-12.59,-14.33,-14.29,0,*67
1516158108.28,43207,8.31,71132.0,-12.59,-14.33,-14.29,0,*66
1516158109.53,43208,8.31,71140.0,-12.57,-14.29,-14.15,0,*63
1516158110.75,43209,8.31,71144.0,-12.59,-14.33,-14.15,0,*67
1516158111.97,43210,8.31,71154.0,-12.59,-14.33,-14.19,0,*63
1516158113.19,43211,8.31,71144.8,-12.59,-14.33,-14.29,0,*61
1516158114.41,43212,8.31,71150.3,-12.59,-14.33,-14.29,0,*62
1516158115.63,43213,8.31,71150.5,-12.59,-14.33,-14.33,0,*68
1516158116.85,43214,8.31,71148.0,-12.59,-14.33,-14.29,0,*64
1516158118.08,43215,8.31,71140.0,-12.59,-14.29,-14.29,0,*6E
1516158119.3,43216,8.31,71140.3,-12.59,-14.29,-14.29,0,*6D
1516158120.52,43217,8.31,71148.0,-12.59,-14.29,-14.29,0,*6C
1516158121.74,43218,8.31,71148.3,-12.59,-14.29,-14.29,0,*63
1516158122.97,43219,8.31,71152.3,-12.59,-14.19,-14.29,0,*61
1516158124.19,43220,8.31,71152.8,-12.59,-14.29,-14.29,0,*68
1516158125.41,43221,8.31,71162.8,-12.59,-14.29,-14.19,0,*6A
1516158126.65,43222,8.31,71162.8,-12.57,-14.29,-14.23,0,*6E
1516158127.9,43223,8.31,71156.3,-12.57,-14.29,-14.29,0,*65
1516158129.14,43224,8.31,71146.5,-12.57,-14.23,-14.29,0,*68
1516158130.36,43225,8.31,71152.3,-12.59,-14.33,-14.29,0,*66
1516158131.61,43226,8.31,71142.8,-12.57,-14.29,-14.37,0,*6F
1516158132.85,43227,8.31,71152.3,-12.57,-14.29,-14.29,0,*61
1516158134.09,43228,8.31,71152.8,-12.57,-14.29,-14.37,0,*61
1516158135.33,43229,8.31,71156.3,-12.57,-14.37,-14.37,0,*6F
1516158136.6,43230,8.31,71154.8,-12.59,-14.43,-14.43,0,*69
1516158137.87,43231,8.31,71148.3,-12.59,-14.51,-14.43,0,*6B
1516158139.15,43232,8.31,71156.0,-12.59,-14.51,-14.47,0,*6C
1516158140.45,43233,8.31,71156.8,-12.57,-14.55,-14.55,0,*64
1516158141.67,43234,8.31,71152.3,-12.59,-14.61,-14.61,0,*6D
1516158142.92,43235,8.31,71158.5,-12.59,-14.51,-14.61,0,*6F
1516158144.19,43236,8.31,71156.0,-12.59,-14.75,-14.79,0,*63
1516158145.46,43237,8.31,71158.0,-12.59,-14.75,-14.79,0,*62
1516158146.74,43238,8.31,71158.8,-12.59,-14.79,-14.79,0,*61
1516158148.0,43239,8.31,71148.8,-12.57,-14.89,-14.75,0,*6D
1516158149.27,43240,8.31,71152.3,-12.59,-14.93,-14.93,0,*6E
1516158150.49,43241,8.31,71158.0,-12.59,-15.07,-14.89,0,*68
1516158151.76,43242,8.31,71144.8,-12.57,-15.15,-14.83,0,*6C
1516158153.0,43243,8.31,71146.0,-12.59,-15.21,-14.89,0,*6E
1516158154.23,43244,8.31,71144.0,-12.59,-15.25,-14.89,0,*6D
1516158155.47,43245,8.31,71148.8,-12.57,-15.25,-14.89,0,*62
1516158156.74,43246,8.31,71142.0,-12.57,-15.29,-14.97,0,*62
1516158157.96,43247,8.31,71138.5,-12.59,-15.49,-15.07,0,*63
1516158159.23,43248,8.31,71126.5,-12.57,-15.35,-15.11,0,*6E
1516158160.45,43249,8.31,71110.3,-12.59,-15.29,-15.07,0,*6B
1516158161.7,43250,8.31,71112.8,-12.59,-15.35,-15.07,0,*6E
1516158162.97,43251,8.31,71112.3,-12.57,-15.43,-15.15,0,*63
1516158164.22,43252,8.31,71112.8,-12.59,-15.49,-15.21,0,*63
1516158165.47,43253,8.31,71118.0,-12.59,-15.39,-15.29,0,*6D
1516158166.7,43254,8.31,71122.0,-12.59,-15.49,-15.29,0,*6D
1516158167.99,43255,8.31,71130.3,-12.57,-15.57,-15.35,0,*60
1516158169.24,43256,8.31,71126.3,-12.57,-15.63,-15.29,0,*69
1516158170.49,43257,8.31,71130.5,-12.59,-15.67,-15.39,0,*63
1516158171.74,43258,8.31,71126.3,-12.57,-15.63,-15.29,0,*67
1516158173.01,43259,8.31,71128.8,-12.57,-15.71,-15.35,0,*68
1516158174.26,43260,8.31,71124.0,-12.59,-15.75,-15.35,0,*68
1516158175.49,43261,8.31,71128.0,-12.59,-15.75,-15.29,0,*64
1516158176.72,43262,8.31,71132.8,-12.59,-15.67,-15.29,0,*64
1516158177.94,43263,8.31,71134.8,-12.59,-15.63,-15.15,0,*6E
1516158179.17,43264,8.31,71138.0,-12.59,-15.53,-15.07,0,*69
1516158180.44,43265,8.31,71132.3,-12.59,-15.39,-15.01,0,*62
1516158181.69,43266,8.31,71134.0,-12.59,-15.39,-14.89,0,*60
1516158182.91,43267,8.31,71128.0,-12.59,-15.49,-14.89,0,*66
1516158184.16,43268,8.31,71120.8,-12.59,-15.39,-14.89,0,*6E
1516158185.41,43269,8.31,71120.5,-12.59,-15.39,-14.89,0,*6F
1516158186.68,43270,8.31,71120.3,-12.59,-15.35,-14.75,0,*68
1516158187.93,43271,8.31,71118.0,-12.59,-15.29,-14.79,0,*68
1516158189.2,43272,8.31,71120.3,-12.59,-15.35,-14.79,0,*66
1516158190.45,43273,8.31,71124.8,-12.59,-15.29,-14.75,0,*66
1516158191.69,43274,8.31,71128.8,-12.59,-15.29,-14.75,0,*61
1516158192.92,43275,8.25,71124.8,-12.59,-15.15,-14.61,0,*6A
1516158194.13,43276,8.31,71136.3,-12.59,-15.07,-14.61,0,*6A
1516158195.36,43277,8.31,71138.5,-12.59,-15.15,-14.61,0,*68
1516158196.6,43278,8.31,71142.8,-12.63,-15.01,-14.65,0,*6F
1516158197.86,43279,8.31,71142.5,-12.59,-15.01,-14.51,0,*60
1516158199.1,43280,8.31,71144.8,-12.59,-14.75,-14.33,0,*60
1516158200.34,43281,8.31,71144.0,-12.63,-14.65,-14.43,0,*6E
1516158201.61,43282,8.31,71144.8,-12.63,-14.75,-14.43,0,*6C
1516158202.86,43283,8.31,71142.5,-12.63,-14.61,-14.47,0,*6C
1516158204.08,43284,8.31,71142.5,-12.63,-14.61,-14.33,0,*68
1516158205.33,43285,8.31,71144.0,-12.59,-14.51,-14.33,0,*63
1516158206.6,43286,8.31,71142.0,-12.59,-14.47,-14.43,0,*60
1516158207.85,43287,8.31,71142.3,-12.59,-14.51,-14.33,0,*61
1516158209.13,43288,8.31,71148.0,-12.63,-14.47,-14.43,0,*67
1516158210.38,43289,8.31,71146.3,-12.63,-14.51,-14.29,0,*6D
1516158211.63,43290,8.31,71146.0,-12.59,-14.47,-14.33,0,*60
1516158212.88,43291,8.31,71150.3,-12.59,-14.51,-14.33,0,*66
1516158214.16,43292,8.31,71148.3,-12.63,-14.47,-14.43,0,*6C
1516158215.41,43293,8.31,71148.0,-12.63,-14.43,-14.33,0,*6E
1516158216.66,43294,8.31,71152.0,-12.63,-14.43,-14.33,0,*69
1516158217.88,43295,8.31,71156.0,-12.63,-14.33,-14.29,0,*64
1516158219.1,43296,8.31,71156.3,-12.63,-14.33,-14.29,0,*67
1516158220.32,43297,8.31,71158.3,-12.59,-14.33,-14.29,0,*6F
1516158221.54,43298,8.25,71152.3,-12.59,-14.33,-14.29,0,*60
1516158222.76,43299,8.31,71152.0,-12.59,-14.33,-14.29,0,*61
1516158224.01,43300,8.31,71152.5,-12.59,-14.43,-14.29,0,*67
1516158225.26,43301,8.31,71156.8,-12.59,-14.43,-14.29,0,*66
1516158226.48,43302,8.31,71160.5,-12.59,-14.33,-14.29,0,*62
1516158227.7,43303,8.31,71160.0,-12.59,-14.33,-14.29,0,*63
1516158228.92,43304,8.31,71164.0,-12.59,-14.33,-14.29,0,*64
1516158230.14,43305,8.31,71160.3,-12.59,-14.33,-14.29,0,*65
1516158231.36,43306,8.31,71158.0,-12.59,-14.33,-14.29,0,*66
1516158232.59,43307,8.31,71156.0,-12.59,-14.33,-14.29,0,*67
1516158233.8,43308,8.31,71160.5,-12.59,-14.33,-14.19,0,*6B
1516158235.03,43309,8.31,71162.3,-12.59,-14.33,-14.29,0,*69
1516158236.27,43310,8.31,71156.3,-12.59,-14.43,-14.33,0,*6D
1516158237.52,43311,8.25,71154.0,-12.59,-14.43,-14.33,0,*6C
1516158238.77,43312,8.31,71152.3,-12.59,-14.43,-14.33,0,*6F
1516158239.99,43313,8.25,71148.3,-12.59,-14.33,-14.33,0,*69
1516158241.25,43314,8.31,71148.3,-12.59,-14.43,-14.43,0,*6E
1516158242.53,43315,8.31,71148.8,-12.63,-14.47,-14.43,0,*62
1516158243.75,43316,8.31,71152.3,-12.63,-14.33,-14.33,0,*65
1516158244.97,43317,8.31,71152.8,-12.63,-14.33,-14.33,0,*64
1516158246.19,43318,8.31,71148.5,-12.63,-14.33,-14.33,0,*6B
1516158247.42,43319,8.31,71154.0,-12.63,-14.29,-14.29,0,*6A
1516158248.64,43320,8.31,71152.3,-12.63,-14.19,-14.29,0,*63
1516158249.88,43321,8.25,71150.0,-12.63,-14.19,-14.15,0,*6D
1516158251.1,43322,8.31,71154.5,-12.63,-14.19,-14.29,0,*61
1516158252.33,43323,8.31,71150.8,-12.63,-14.19,-14.19,0,*63
1516158253.55,43324,8.31,71144.5,-12.59,-14.29,-14.29,0,*6D
1516158254.78,43325,8.31,71142.3,-12.59,-14.19,-14.19,0,*6C
1516158256.01,43326,8.31,71150.3,-12.59,-14.15,-14.19,0,*63
1516158257.26,43327,8.31,71148.8,-12.57,-14.15,-14.23,0,*65
1516158258.49,43328,8.31,71142.0,-12.59,-14.15,-14.19,0,*6D
1516158259.72,43329,8.25,71142.5,-12.59,-14.15,-14.29,0,*6F
1516158260.94,43330,8.31,71146.3,-12.59,-14.19,-14.19,0,*68
1516158262.17,43331,8.31,71140.8,-12.59,-14.19,-14.29,0,*6A
1516158263.42,43332,8.31,71140.5,-12.57,-14.15,-14.23,0,*61
1516158264.65,43333,8.31,71128.5,-12.59,-14.29,-14.29,0,*6B
1516158265.87,43334,8.31,71126.5,-12.59,-14.29,-14.29,0,*6C
1516158267.09,43335,8.31,71126.5,-12.59,-14.29,-14.29,0,*6D
1516158268.31,43336,8.25,71116.0,-12.59,-14.29,-14.29,0,*6E
1516158269.56,43337,8.31,71120.5,-12.59,-14.29,-14.47,0,*67
1516158270.8,43338,8.31,71118.5,-12.59,-14.29,-14.43,0,*6C
1516158272.05,43339,8.31,71106.5,-12.59,-14.43,-14.33,0,*66
1516158273.32,43340,8.31,71124.8,-12.59,-14.43,-14.43,0,*6F
1516158274.59,43341,8.31,71128.0,-12.65,-14.37,-14.47,0,*66
1516158275.83,43342,8.31,71130.5,-12.63,-14.33,-14.43,0,*63
1516158277.05,43343,8.31,71142.0,-12.63,-14.33,-14.33,0,*65
1516158278.31,43344,8.25,71138.5,-12.63,-14.47,-14.33,0,*61
1516158279.58,43345,8.31,71142.8,-12.63,-14.51,-14.43,0,*60
1516158280.85,43346,8.31,71142.0,-12.59,-14.43,-14.43,0,*69
1516158282.13,43347,8.31,71140.8,-12.59,-14.51,-14.47,0,*6F
1516158283.4,43348,8.31,71144.3,-12.59,-14.47,-14.43,0,*63
1516158284.64,43349,8.25,71140.5,-12.59,-14.33,-14.43,0,*61
1516158285.91,43350,8.25,71142.0,-12.59,-14.43,-14.43,0,*6E
1516158287.18,43351,8.31,71136.0,-12.57,-14.43,-14.37,0,*62
1516158288.43,43352,8.25,71128.3,-12.59,-14.47,-14.33,0,*6F
1516158289.67,43353,8.25,71138.3,-12.63,-14.61,-14.43,0,*64
1516158290.92,43354,8.31,71138.0,-12.59,-14.65,-14.51,0,*6D
1516158292.16,43355,8.25,71134.5,-12.59,-14.61,-14.51,0,*68
1516158293.38,43356,8.31,71138.5,-12.59,-14.65,-14.61,0,*6C
1516158294.62,43357,8.31,71134.5,-12.59,-14.79,-14.61,0,*60
1516158295.87,43358,8.31,71142.8,-12.59,-14.65,-14.75,0,*67
1516158297.11,43359,8.25,71138.3,-12.59,-14.65,-14.75,0,*66
1516158298.4,43360,8.25,71138.3,-12.57,-14.83,-14.75,0,*6A
1516158299.65,43361,8.31,71140.8,-12.59,-14.89,-14.93,0,*67
1516158300.89,43362,8.25,71138.3,-12.59,-14.79,-15.07,0,*67
1516158302.14,43363,8.31,71140.3,-12.59,-14.89,-15.21,0,*6D
1516158303.4,43364,8.31,71144.0,-12.59,-14.93,-15.21,0,*61
1516158304.65,43365,8.31,71144.3,-12.59,-14.89,-15.35,0,*6E
1516158305.9,43366,8.25,71140.0,-12.59,-15.01,-15.53,0,*6C
1516158307.14,43367,8.31,71146.8,-12.59,-15.21,-15.95,0,*65
1516158308.41,43368,8.31,71142.3,-12.59,-15.39,-16.23,0,*6D
1516158309.65,43369,8.31,71138.0,-12.59,-15.63,-16.51,0,*66
1516158310.87,43370,8.31,71132.5,-12.63,-16.03,-16.83,0,*6D
1516158312.15,43371,8.31,71154.0,-12.59,-16.31,-17.07,0,*69
1516158313.42,43372,8.25,71146.5,-12.59,-16.65,-17.21,0,*6F
1516158314.64,43373,8.31,71146.3,-12.59,-16.97,-17.31,0,*62
1516158315.91,43374,8.25,71136.5,-12.59,-17.25,-17.45,0,*6E
1516158317.19,43375,8.25,71142.5,-12.59,-17.45,-17.25,0,*6F
1516158318.43,43376,8.31,71138.3,-12.59,-17.69,-17.21,0,*66
1516158319.68,43377,8.31,71132.3,-12.63,-17.83,-17.11,0,*69
1516158320.9,43378,8.31,71118.5,-12.63,-17.83,-16.93,0,*6D
1516158322.15,43379,8.31,71132.3,-12.63,-17.83,-16.69,0,*69
1516158323.4,43380,8.31,71146.3,-12.65,-17.87,-16.59,0,*6E
1516158324.67,43381,8.31,71138.3,-12.65,-17.79,-16.41,0,*67
1516158325.89,43382,8.31,71140.0,-12.63,-17.69,-16.41,0,*63
1516158327.17,43383,8.25,71138.5,-12.63,-17.45,-16.17,0,*6F
1516158328.45,43384,8.25,71146.0,-12.63,-17.21,-16.09,0,*65
1516158329.74,43385,8.25,71140.0,-12.65,-17.25,-16.23,0,*6E
1516158331.0,43386,8.31,71140.8,-12.65,-17.11,-15.99,0,*68
1516158332.26,43387,8.31,71138.8,-12.63,-16.83,-15.81,0,*6C
1516158333.54,43388,8.31,71140.0,-12.63,-16.65,-15.81,0,*6B
1516158334.79,43389,8.31,71144.5,-12.63,-16.41,-15.89,0,*64
1516158336.04,43390,8.31,71132.0,-12.65,-16.37,-15.95,0,*66
1516158337.31,43391,8.25,71132.3,-12.65,-16.27,-16.03,0,*6A
1516158338.55,43392,8.31,71140.3,-12.63,-16.31,-16.03,0,*68
1516158339.85,43393,8.31,71152.3,-12.65,-16.27,-16.09,0,*62
1516158341.12,43394,8.31,71138.3,-12.65,-16.13,-16.03,0,*68
1516158342.37,43395,8.25,71134.0,-12.63,-16.17,-16.03,0,*6B
1516158343.62,43396,8.31,71152.5,-12.63,-16.17,-16.03,0,*68
1516158344.89,43397,8.31,71144.8,-12.63,-15.89,-15.81,0,*64
1516158346.12,43398,8.31,71130.0,-12.63,-15.53,-15.75,0,*67
1516158347.39,43399,8.25,71130.5,-12.65,-15.57,-15.95,0,*6A
1516158348.66,43400,8.31,71126.5,-12.65,-15.67,-16.09,0,*68
1516158349.88,43401,8.31,71130.3,-12.63,-15.75,-16.37,0,*61
1516158351.13,43402,8.25,71126.0,-12.63,-15.95,-16.65,0,*6B
1516158352.38,43403,8.31,71116.8,-12.63,-16.23,-16.83,0,*6C
1516158353.63,43404,8.25,71114.0,-12.65,-16.41,-16.83,0,*69
1516158354.88,43405,8.31,71106.3,-12.65,-16.59,-16.83,0,*61
1516158356.13,43406,8.25,71102.5,-12.65,-16.55,-16.75,0,*67
1516158357.38,43407,8.25,71092.0,-12.65,-16.55,-16.75,0,*66
1516158358.61,43408,8.25,71096.8,-12.63,-16.55,-16.79,0,*63
1516158359.86,43409,8.31,71096.8,-12.63,-16.59,-16.69,0,*6F
1516158361.09,43410,8.31,71092.5,-12.63,-16.41,-16.55,0,*61
1516158362.34,43411,8.31,71100.3,-12.63,-16.65,-16.55,0,*66
1516158363.58,43412,8.31,71122.0,-12.63,-16.83,-16.51,0,*69
1516158364.81,43413,8.31,71114.3,-12.63,-16.83,-16.37,0,*68
1516158366.1,43414,8.25,71120.3,-12.65,-16.69,-16.27,0,*6C
1516158367.35,43415,8.25,71112.0,-12.63,-16.65,-16.37,0,*66
1516158368.59,43416,8.31,71102.5,-12.65,-16.83,-16.55,0,*6F
1516158369.82,43417,8.31,71106.0,-12.63,-16.97,-16.41,0,*68
1516158371.08,43418,8.31,71108.5,-12.65,-17.03,-16.45,0,*69
1516158372.33,43419,8.31,71118.8,-12.63,-17.07,-16.41,0,*6E
1516158373.56,43420,8.31,71114.8,-12.65,-17.31,-16.45,0,*63
1516158374.82,43421,8.25,71102.8,-12.63,-17.41,-16.41,0,*67
1516158376.07,43422,8.25,71102.3,-12.63,-17.41,-16.41,0,*64
1516158377.32,43423,8.31,71106.5,-12.63,-17.41,-16.37,0,*64
1516158378.6,43424,8.25,71108.5,-12.63,-17.41,-16.23,0,*66
1516158379.85,43425,8.25,71100.0,-12.63,-17.45,-16.37,0,*66
1516158381.11,43426,8.25,71098.8,-12.65,-17.49,-16.27,0,*6E
1516158382.36,43427,8.31,71090.0,-12.63,-17.69,-16.23,0,*6F
1516158383.6,43428,8.31,71084.0,-12.63,-17.73,-16.23,0,*6B
1516158384.89,43429,8.25,71078.8,-12.65,-17.79,-16.13,0,*65
1516158386.14,43430,8.25,71082.5,-12.63,-17.73,-16.17,0,*65
1516158387.39,43431,8.25,71080.8,-12.65,-17.87,-15.99,0,*6C
1516158388.61,43432,8.31,71078.5,-12.63,-17.73,-15.95,0,*6E
1516158389.88,43433,8.25,71062.5,-12.65,-17.87,-15.85,0,*63
1516158391.15,43434,8.25,71060.3,-12.65,-17.79,-15.53,0,*6E
1516158392.42,43435,8.31,71034.8,-12.59,-17.55,-15.35,0,*6E
1516158393.68,43436,8.25,71022.0,-12.63,-17.45,-15.15,0,*67
1516158394.93,43437,8.31,71040.0,-12.63,-17.21,-14.89,0,*60
1516158396.18,43438,8.31,71056.0,-12.65,-16.83,-14.65,0,*62
1516158397.43,43439,8.25,71054.8,-12.59,-16.37,-14.47,0,*63
1516158398.67,43440,8.31,71072.5,-12.65,-15.95,-14.37,0,*6E
1516158399.94,43441,8.31,71040.0,-12.65,-15.57,-14.23,0,*64
1516158401.16,43442,8.31,71036.0,-12.63,-15.29,-14.15,0,*6D
1516158402.38,43443,8.31,71124.0,-12.63,-14.89,-13.93,0,*6E
1516158403.64,43444,8.31,71116.3,-12.63,-14.51,-13.79,0,*68
1516158404.91,43445,8.25,71126.8,-12.65,-14.69,-13.97,0,*64
1516158406.16,43446,8.31,71106.5,-12.63,-14.65,-14.01,0,*65
1516158407.42,43447,8.31,71088.5,-12.65,-14.51,-14.11,0,*64
1516158408.7,43448,8.25,71090.5,-12.63,-14.47,-14.05,0,*6F
1516158409.96,43449,8.31,71104.5,-12.63,-14.51,-14.15,0,*68
1516158411.2,43450,8.31,71094.0,-12.63,-14.65,-14.05,0,*66
1516158412.42,43451,8.31,71106.8,-12.63,-14.65,-14.29,0,*69
1516158413.64,43452,8.31,71120.0,-12.63,-14.61,-14.15,0,*61
1516158414.89,43453,8.25,71134.0,-12.63,-14.51,-14.15,0,*63
1516158416.11,43454,8.31,71132.0,-12.63,-14.33,-13.93,0,*69
1516158417.33,43455,8.31,71132.5,-12.63,-14.33,-13.93,0,*68
1516158418.54,43456,8.31,71134.0,-12.63,-14.29,-13.93,0,*60
1516158419.81,43457,8.31,71142.0,-12.65,-14.33,-14.05,0,*64
1516158421.06,43458,8.25,71140.8,-12.63,-14.19,-14.05,0,*65
1516158422.29,43459,8.25,71136.3,-12.63,-14.19,-13.93,0,*6C
1516158423.52,43460,8.25,71132.0,-12.59,-14.19,-14.15,0,*66
1516158424.76,43461,8.25,71142.5,-12.59,-14.29,-14.05,0,*65
1516158426.01,43462,8.25,71148.0,-12.65,-14.23,-14.19,0,*6E
1516158427.23,43463,8.31,71156.3,-12.59,-14.29,-14.15,0,*66
1516158428.45,43464,8.25,71154.3,-12.63,-14.33,-14.29,0,*6C
1516158429.73,43465,8.25,71150.3,-12.63,-14.51,-14.43,0,*65
1516158430.96,43466,8.31,71158.5,-12.63,-14.65,-14.43,0,*61
1516158432.23,43467,8.25,71160.8,-12.63,-15.01,-14.51,0,*60
1516158433.47,43468,8.31,71164.3,-12.63,-15.21,-14.61,0,*6E
1516158434.69,43469,8.25,71164.0,-12.59,-15.29,-14.61,0,*6E
1516158435.94,43470,8.25,71162.3,-12.59,-15.39,-14.61,0,*67
1516158437.19,43471,8.25,71154.8,-12.63,-15.63,-14.51,0,*63
1516158438.44,43472,8.25,71150.0,-12.63,-15.75,-14.51,0,*67
1516158439.66,43473,8.31,71146.3,-12.59,-15.67,-14.33,0,*68
1516158440.88,43474,8.25,71134.0,-12.63,-15.53,-14.29,0,*6A
1516158442.1,43475,8.25,71126.3,-12.63,-15.53,-14.29,0,*6B
1516158443.35,43476,8.31,71112.8,-12.59,-15.39,-14.29,0,*6D
1516158444.57,43477,8.25,71120.8,-12.59,-15.29,-14.19,0,*6E
1516158445.79,43478,8.25,71138.8,-12.63,-15.29,-14.19,0,*68
1516158447.01,43479,8.25,71128.3,-12.63,-15.29,-14.29,0,*6A
1516158448.25,43480,8.25,71124.8,-12.59,-15.21,-14.19,0,*6E
1516158449.49,43481,8.31,71146.0,-12.63,-15.21,-14.29,0,*65
1516158450.71,43482,8.25,71138.5,-12.63,-15.15,-14.19,0,*62
1516158451.95,43483,8.25,71136.8,-12.63,-15.21,-14.15,0,*68
1516158453.17,43484,8.25,71146.8,-12.63,-15.15,-14.19,0,*64
1516158454.44,43485,8.25,71128.5,-12.63,-15.01,-14.05,0,*6D
1516158455.7,43486,8.25,71140.8,-12.63,-14.93,-14.05,0,*64
1516158456.94,43487,8.31,71154.8,-12.63,-14.75,-13.93,0,*65
1516158458.21,43488,8.31,71148.0,-12.59,-14.75,-14.01,0,*6F
1516158459.49,43489,8.31,71150.3,-12.59,-14.51,-14.01,0,*68
1516158460.77,43490,8.25,71142.5,-12.59,-14.47,-14.01,0,*67
1516158462.05,43491,8.25,71142.5,-12.59,-14.43,-14.01,0,*62
1516158463.3,43492,8.25,71146.5,-12.59,-14.33,-14.01,0,*66
1516158464.55,43493,8.25,71146.8,-12.59,-14.33,-14.01,0,*67
1516158465.8,43494,8.25,71142.3,-12.59,-14.33,-14.01,0,*60
1516158467.01,43495,8.31,71154.3,-12.59,-14.29,-13.93,0,*66
1516158468.27,43496,8.31,71150.8,-12.59,-14.19,-14.01,0,*6A
1516158469.54,43497,8.31,71154.0,-12.57,-14.15,-13.87,0,*60
1516158470.79,43498,8.25,71154.5,-12.59,-14.29,-14.01,0,*67
1516158472.06,43499,8.31,71154.8,-12.57,-14.11,-13.97,0,*6B
1516158473.32,43500,8.25,71150.5,-12.59,-14.15,-14.01,0,*68
1516158474.57,43501,8.25,71150.3,-12.59,-14.15,-13.87,0,*60
1516158475.82,43502,8.25,71152.5,-12.59,-14.19,-13.87,0,*6F
1516158477.12,43503,8.31,71166.3,-12.57,-14.01,-13.87,0,*69
1516158478.41,43504,8.25,71150.5,-12.57,-14.01,-13.83,0,*6A
1516158479.66,43505,8.25,71152.5,-12.59,-14.05,-13.93,0,*60
1516158480.9,43506,8.25,71158.0,-12.59,-14.05,-13.93,0,*63
1516158482.15,43507,8.25,71156.3,-12.59,-14.05,-13.93,0,*62
1516158483.45,43508,8.25,71144.0,-12.57,-14.01,-14.01,0,*6B
1516158484.73,43509,8.25,71144.3,-12.59,-14.05,-14.01,0,*60
1516158486.03,43510,8.31,71148.5,-12.57,-14.01,-13.97,0,*6A
1516158487.31,43511,8.25,71148.0,-12.59,-14.05,-14.05,0,*6D
1516158488.59,43512,8.31,71150.8,-12.59,-14.05,-14.01,0,*6A
1516158489.84,43513,8.31,71148.0,-12.59,-14.01,-13.93,0,*63
1516158491.12,43514,8.25,71150.3,-12.59,-14.01,-14.01,0,*68
1516158492.4,43515,8.25,71152.0,-12.59,-14.05,-14.05,0,*69
1516158493.67,43516,8.31,71146.5,-12.57,-14.01,-14.11,0,*65
1516158494.92,43517,8.31,71150.5,-12.59,-14.19,-14.05,0,*66
1516158496.17,43518,8.31,71152.3,-12.59,-14.01,-13.93,0,*68
1516158497.42,43519,8.31,71152.5,-12.59,-14.15,-14.05,0,*64
1516158498.7,43520,8.31,71154.0,-12.57,-14.11,-14.01,0,*60